Regional Weather Roundup
Issued by NWS Midland/Odessa, TX

Home | Current Version | Previous Version | Text Only | Print | Product List | Glossary On
Versions: 1 2 3 4 5 6 7 8 9 10 11 12 13 14 15 16 17 18 19 20 21 22 23 24 25 26 27 28 29 30 31 32 33 34 35 36 37 38 39 40 41 42 43 44 45 46 47 48 49 50
000
ASUS44 KMAF 280410
RWRMAF
MIDLAND AREA WEATHER ROUNDUP
NATIONAL WEATHER SERVICE MIDLAND TX
1100 PM CDT MON JUL 27 2015

...IN SOUTHWEST TEXAS AND SOUTHEAST NEW MEXICO...

CITY           SKY/WX    TMP DP  RH WIND       PRES   REMARKS
ALPINE         CLOUDY    75  58  54 CALM      30.13R
ANDREWS        FAIR      86  55  33 SE5       29.97R
ARTESIA        MOCLDY    84  59  42 S9        29.96R
BIG SPRING     CLEAR     88  58  36 E9        29.96R
CARLSBAD       MOCLDY    87  57  35 SW9       29.92R
DRYDEN           N/A     91  62  37 SE8       29.92R
FORT STOCKTON  LGT RAIN  86  59  39 SE15G24   29.96R
GUAD PASS      MOCLDY    79  54  41 NE6       30.14R
HOBBS          MOCLDY    82  61  47 CALM      30.01R
MARFA          CLOUDY    70  64  83 SW5       30.13R
MIDLAND AIRPK  CLEAR     91  54  27 S10       29.96R
MIDLAND INTL   CLEAR     88  56  33 SE8       29.95R
ODESSA         CLEAR     91  55  29 S13       29.96R
PECOS          PTCLDY    87  55  34 SE10      29.91R
PRESIDIO       FAIR      84  58  41 MISG      29.95R
SEMINOLE       MOCLDY    89  53  28 SE5       29.99R
SNYDER         CLEAR     86  63  46 SE9       29.95R
WINK           MOCLDY    92  58  31 S17       29.92R
$$
...OTHER STATIONS IN TEXAS...

CITY           SKY/WX    TMP DP  RH WIND       PRES   REMARKS
ABILENE        CLEAR     85  65  51 SE14      29.94R
AMARILLO       CLEAR     81  61  50 SE14      29.97R
AUSTIN         CLEAR     83  73  72 S12       29.94R
BROWNSVILLE    PTCLDY    83  78  85 SE10      29.92R
CORPUS CHRISTI CLEAR     83  76  79 SE12      29.92R
DALLAS FTW     CLEAR     89  66  46 S9        29.91R
DEL RIO        CLEAR     91  61  36 E13       29.85R
EL PASO        LGT RAIN  84  56  38 E7G18     30.00R
HOUSTON INT    PTCLDY    84  75  74 S7        29.95R
LUBBOCK        PTCLDY    84  62  47 SE13      29.97R
SAN ANGELO     PTCLDY    89  62  40 SE9       29.93R
SAN ANTONIO    CLEAR     84  71  65 SE12      29.96R
WACO           CLEAR     87  67  51 SE12      29.92R
WICHITA FALLS  NOT AVBL
$$
...OTHER LOCATIONS IN NEW MEXICO...

CITY           SKY/WX    TMP DP  RH WIND       PRES   REMARKS
ALAMAGORDO     CLOUDY    86  50  28 S7        30.01R
ALBUQUERQUE    CLOUDY    82  52  35 SE8       30.07R
CANNON AFB     CLOUDY    84  59  43 NW15G23   30.06R
CLOVIS         MOCLDY    79  57  47 SW8       30.05R
HOLLOMAN AFB   CLOUDY    88  51  28 W7        29.99R
ROSWELL        MOCLDY    86  55  34 S10       29.96R
RUIDOSO          N/A    N/A N/A N/A MISG        N/A
SANTA FE       MOCLDY    77  46  33 CALM      30.14R
TRUTH OR CONSE PTCLDY    83  52  34 CALM      30.03R
TUCUMCARI      CLOUDY    87  53  31 S29G36    29.96R
$$



USA.gov is the U.S. government's official web portal to all federal, state and local government web resources and services.